Home   Weather   Griffith   Past weeks
Flag for Australia

Past Weather in Griffith, New South Wales, Australia — Yesterday and Last 2 Weeks

Now
56 °F

Refreshingly cool.


Feels Like: 54 °F
Forecast: 83 / 45 °F
Wind: 6 mph from Southwest

Location: Griffith Airport

Current Time: Oct 21, 2019 at 3:46:05 am

Latest Report: Oct 21, 2019 at 1:00 am


Visibility: N/A

Pressure: 30.31 "Hg

Humidity: 57%

Dew Point: 41 °F

Location of GriffithLocation

Past Weather in Griffith — Graph

°F

Griffith Temperature Yesterday

Maximum temperature yesterday: 70 °F (at 6:00 pm)
Minimum temperature yesterday: 40 °F (at 7:00 am)
Average temperature yesterday: 57 °F

High & Low Weather Summary for the Past Weeks

 TemperatureHumidityPressure
High95 °F (Oct 6, 3:00 pm)100% (Oct 17, 4:00 am)30.31 "Hg (Oct 17, 4:00 am)
Low37 °F (Oct 18, 6:00 am)12% (Oct 6, 3:00 pm)29.75 "Hg (Oct 16, 6:00 pm)
Average62 °F46%30.00 "Hg
* Reported Oct 6 12:00 am — Oct 21 1:00 am, Griffith. Weather by CustomWeather, © 2019

Note: Actual official high and low records may vary slightly from our data, if they occured in-between our weather recording intervals... More about our weather records

Advertising

Griffith Weather History for the Previous 24 Hours

Scroll right to see more
 ConditionsComfort  
Time TempWeatherWind HumidityBarometerVisibility
1:00 am
Mon, Oct 21
56 °FRefreshingly cool.6 mph57%30.31 "HgN/A
12:00 am57 °FRefreshingly cool.5 mph48%30.30 "HgN/A
10:00 pm
Sun, Oct 20
61 °FRefreshingly cool.9 mph40%30.30 "HgN/A
9:00 pm61 °FRefreshingly cool.5 mph38%30.29 "HgN/A
7:00 pm68 °FMild.10 mph31%30.24 "HgN/A
6:00 pm70 °FMild.15 mph28%30.22 "HgN/A
4:00 pm69 °FMild.13 mph28%30.22 "HgN/A
3:00 pm68 °FMild.14 mph29%30.24 "HgN/A
1:00 pm65 °FMild.12 mph33%30.26 "HgN/A
12:00 pm62 °FRefreshingly cool.12 mph37%30.28 "HgN/A
10:00 am57 °FRefreshingly cool.14 mph51%30.31 "HgN/A
9:00 am54 °FCool.12 mph59%30.30 "HgN/A
7:00 am40 °FQuite cool.No wind79%30.26 "HgN/A
6:00 am41 °FQuite cool.3 mph74%30.24 "HgN/A
4:00 am48 °FCool.10 mph63%30.20 "HgN/A
3:00 am49 °FCool.10 mph56%30.20 "HgN/A
Weather by CustomWeather, © 2019

See weather overview